Home > Weather > Linares > Past weeks

Flag for Spain Past Weather in Linares, Spain — Yesterday and Last 2 Weeks

Now
82 °F

Passing clouds.


Feels Like: 82 °F
Forecast: 64 / 97 °F
Wind: No wind

Location: Granada / Aeropuerto

Current Time: Aug 28, 2016 at 10:58:49 AM

Latest Report: Aug 28, 2016 at 10:30 AM


Visibility: N/A

Pressure: 30.18 "Hg

Humidity: 42%

Dew Point: 57 °F

Location of LinaresLocation

Past Weather in Linares — Graph

°F

Linares Temperature Yesterday

Maximum temperature yesterday: 99 °F (at 3:00 PM)
Minimum temperature yesterday: 66 °F (at 6:00 AM)
Average temperature yesterday: 82 °F

High & Low Weather Summary for the Past Weeks

 TemperatureHumidityPressure
High99 °F (Aug 18, 5:30 PM)94% (Aug 26, 7:00 AM)30.24 "Hg (Aug 26, 7:00 AM)
Low61 °F (Aug 25, 8:00 AM)13% (Aug 17, 4:00 PM)29.89 "Hg (Aug 18, 5:30 PM)
Average80 °F47%30.08 "Hg
* Reported Aug 13 9:00 AM — Aug 28 9:30 AM, Linares, Weather by CustomWeather, © 2016

Note: Actual official high and low records may vary slightly from our data, if they occured in-between our weather recording intervals... More about our weather records

Advertising

Linares Weather History for the Previous 24 Hours

Scroll right to see more
 ConditionsComfort  
Time TempWeatherWind HumidityBarometerVisibility
9:30 AM
Sun, Aug 28
75 °FPassing clouds.No wind54%30.15 "HgN/A
9:00 AM72 °FPassing clouds.No wind61%30.15 "HgN/A
8:30 AM68 °FPassing clouds.No wind64%30.15 "HgN/A
8:00 AM68 °FPassing clouds.No wind64%30.15 "HgN/A
7:30 AM68 °FPassing clouds.2 mph64%30.12 "HgN/A
7:00 AM68 °FClear.1 mph64%30.12 "Hg10 mi
6:30 AM68 °FClear.No wind69%30.12 "Hg10 mi
6:00 AM70 °FClear.1 mph60%30.12 "Hg10 mi
5:30 AM70 °FMild.1 mph60%30.12 "HgN/A
5:00 AM70 °FMild.No wind57%30.15 "HgN/A
4:30 AM70 °FMild.No wind60%30.15 "HgN/A
4:00 AM72 °FMild.No wind57%30.15 "HgN/A
3:30 AM72 °FMild.No wind57%30.15 "HgN/A
3:00 AM73 °FMild.No wind53%30.15 "HgN/A
2:30 AM73 °FMild.1 mph53%30.15 "HgN/A
2:00 AM75 °FMild.No wind50%30.15 "HgN/A
1:30 AM75 °FMild.1 mph54%30.15 "HgN/A
1:00 AM77 °FWarm.No wind47%30.18 "HgN/A
12:30 AM79 °FWarm.No wind48%30.18 "HgN/A
12:00 AM81 °FWarm.No wind48%30.18 "HgN/A
11:30 PM
Sat, Aug 27
79 °FWarm.1 mph51%30.15 "HgN/A
11:00 PM82 °FClear.No wind42%30.15 "Hg10 mi
10:30 PM86 °FClear.2 mph33%30.15 "Hg10 mi
10:00 PM86 °FPassing clouds.9 mph35%30.12 "HgN/A
9:30 PM88 °FPassing clouds.12 mph33%30.12 "HgN/A
9:00 PM90 °FPassing clouds.10 mph31%30.12 "HgN/A
8:30 PM91 °FScattered clouds.12 mph30%30.09 "HgN/A
8:00 PM93 °FScattered clouds.14 mph28%30.09 "HgN/A
7:30 PM95 °FScattered clouds.12 mph26%30.09 "HgN/A
7:00 PM97 °FScattered clouds.10 mph25%30.09 "HgN/A
6:30 PM97 °FScattered clouds.13 mph27%30.09 "HgN/A
6:00 PM99 °FScattered clouds.2 mph21%30.09 "HgN/A
5:30 PM99 °FScattered clouds.1 mph22%30.09 "HgN/A
5:00 PM95 °FScattered clouds.3 mph26%30.09 "HgN/A
4:30 PM97 °FScattered clouds.6 mph22%30.09 "HgN/A
4:00 PM97 °FScattered clouds.8 mph22%30.12 "HgN/A
3:30 PM99 °FScattered clouds.6 mph21%30.12 "HgN/A
3:00 PM99 °FPassing clouds.5 mph21%30.12 "HgN/A
2:30 PM95 °FPassing clouds.3 mph23%30.12 "HgN/A
2:00 PM93 °FPassing clouds.1 mph26%30.12 "HgN/A
1:30 PM93 °FSunny.No wind26%30.12 "Hg10 mi
1:00 PM91 °FSunny.1 mph30%30.15 "Hg10 mi
12:30 PM88 °FSunny.1 mph31%30.15 "Hg10 mi
12:00 PM86 °FSunny.No wind38%30.15 "Hg10 mi
11:30 AM82 °FSunny.1 mph45%30.15 "Hg10 mi
11:00 AM79 °FSunny.No wind51%30.15 "Hg10 mi
10:30 AM79 °FSunny.No wind51%30.15 "Hg10 mi
10:00 AM75 °FSunny.No wind57%30.15 "Hg10 mi
Weather by CustomWeather, © 2016

See weather overviewHow to use our weather pages